This is the latest recevied weather packets stored in our database for station/object KA4YMY. If no packets are shown the sender has not sent any weather packets the latest 10 day(s).
| Time | Temp. | Humidity | Pressure | Rain* | Wind** | Luminosity | Snow |
|---|---|---|---|---|---|---|---|
| 1788574817 | 28.89° C | 74% | 1014.2 hPa | 0 mm | - | - | - |
| 1788574217 | 28.89° C | 73% | 1014.2 hPa | 0 mm | - | - | - |
| 1788573618 | 28.89° C | 75% | 1014.3 hPa | 0 mm | - | - | - |
| 1788573016 | 28.89° C | 75% | 1014.1 hPa | 0 mm | - | - | - |
| 1788572416 | 29.44° C | 75% | 1014.3 hPa | 0 mm | - | - | - |
| 1788571816 | 30° C | 74% | 1014.2 hPa | 0 mm | - | - | - |
| 1788571216 | 30° C | 73% | 1014.1 hPa | 0 mm | - | - | - |
| 1788570635 | 30.56° C | 70% | 1014 hPa | 0 mm | - | - | - |
| 1788570016 | 30.56° C | 69% | 1014 hPa | 0 mm | - | - | - |
| 1788569416 | 30.56° C | 67% | 1014.1 hPa | 0 mm | - | - | - |
| 1788568853 | 31.11° C | 66% | 1014.2 hPa | 0 mm | - | - | - |
| 1788568216 | 31.67° C | 66% | 1014.1 hPa | 0 mm | - | - | - |
| 1788567616 | 31.67° C | 63% | 1014.2 hPa | 0 mm | - | - | - |
| 1788567016 | 32.22° C | 62% | 1014.1 hPa | 0 mm | - | - | - |
| 1788566416 | 32.22° C | 61% | 1013.9 hPa | 0 mm | - | - | - |
| 1788565816 | 32.78° C | 61% | 1013.8 hPa | 0 mm | - | - | - |
| 1788565216 | 33.33° C | 59% | 1013.7 hPa | 0 mm | - | - | - |
| 1788564616 | 33.33° C | 57% | 1013.7 hPa | 0 mm | - | - | - |
| 1788564016 | 33.89° C | 56% | 1013.5 hPa | 0 mm | - | - | - |
| 1788563416 | 33.89° C | 54% | 1013.5 hPa | 0 mm | - | - | - |
| 1788562816 | 33.89° C | 54% | 1013.4 hPa | 0 mm | - | - | - |
| 1788562216 | 34.44° C | 52% | 1013.3 hPa | 0 mm | - | - | - |
| 1788561616 | 34.44° C | 52% | 1013.3 hPa | 0 mm | - | - | - |
| 1788561016 | 34.44° C | 53% | 1013.5 hPa | 0 mm | - | - | - |
| 1788560416 | 34.44° C | 53% | 1013.6 hPa | 0 mm | - | - | - |
* Rain latest hour (hover to see other rain measurements)
** Current wind speed in m/s (hover to see current wind gust speed)